sat.trackr.live / text

‹ back to catalog

STARLINK-30140

NORAD 57458 · 2023-107B

PAYLOAD ACTIVE UNKNOWN

§ Identity

Operator
Country
US
Launch date
2023-07-28
Launch site
AFETR
Launch vehicle
Mass (kg)
RCS (m²)

Purposes: comms

External: N2YO · Heavens-Above · Gunter

§ Orbital elements

Epoch: 2026-09-20T05:57:28.463040Z

Period
94.27 min
Inclination
43.0015°
Eccentricity
0.0001238
Mean motion
15.27574223 rev/d
Perigee alt
482.2 km
Apogee alt
483.9 km
Semi-major
6,861.2 km
B*
5.0166e-6
RAAN
320.6379°
Arg perigee
277.9237°
Mean anomaly
82.1474°
Rev number
17,486

§ Raw data

STARLINK-301401 57458U 23107B   26263.24824610 -.00000124  00000+0  50166-5 0  99982 57458  43.0015 320.6379 0001238 277.9237  82.1474 15.27574223174865

JSON: /api/v1/satellites/57458 · /tle

For live sub-satellite position, see the globe view (requires WebGL).

§ Visibility from observer

Set your observer location to see the next 7 days of passes ≥ 10°. The values pass through the URL so the page stays shareable.

No JS? Fill the form by hand. The geolocation button needs JavaScript.